Wind_Speed
3 4 7 10 6 3 6 4 4 0 1 2 5 7 12 23 17 24 25 25 27 29 29 26 26 24 27 31 32 31 34 35 37 38 38 38 38 39 41 40 36 32 33 33
5 4 6 6 4 4 4 3 1 1 1 1 5 11 11 18 15 24 26 24 19 19 23 23 23 25 25 26 28 31 31 32 33 36 37 38 37 39 39 39 38 38 35 36
6 2 10 6 4 5 2 4 3 3 2 3 5 8 6 5 6 11 13 17 21 19 17 11 11 20 24 26 26 27 30 33 33 32 36 38 38 39 40 42 41 43 37 39
3 3 7 5 4 5 4 5 5 4 3 3 2 5 6 5 10 9 18 15 14 10 6 6 7 7 13 18 22 25 27 31 33 33 34 34 35 38 35 36 35 36 37 40
6 7 7 4 5 5 4 4 5 3 4 3 4 1 7 4 7 8 11 7 10 11 10 9 6 2 1 6 14 18 21 27 32 33 33 32 33 33 33 33 34 33 33 37
2 1 2 5 3 2 8 6 7 5 3 1 5 5 5 3 2 2 7 7 8 8 8 7 7 6 2 3 5 8 14 19 24 27 29 29 29 29 31 32 33 32 31 31
1 1 1 3 6 4 4 6 2 3 2 5 1 2 8 6 5 3 8 5 7 7 6 5 5 6 5 4 4 4 3 5 10 16 21 23 25 26 28 29 29 30 31 32
6 3 7 4 6 8 5 6 5 7 4 3 2 5 5 5 7 1 4 6 8 11 10 8 9 10 10 11 12 10 8 5 4 7 11 16 19 21 21 21 21 24 26 27
5 4 1 1 3 6 5 3 5 7 3 3 3 6 10 5 6 9 12 12 15 17 19 22 19 19 25 25 22 19 17 16 14 9 7 6 8 11 13 15 17 20 22 24
8 4 1 1 3 3 4 7 3 3 2 3 4 4 5 3 6 4 8 13 16 21 21 22 18 17 18 17 17 16 15 15 15 14 11 11 13 14 15 17 19 21 24 27
6 4 1 3 6 8 3 3 4 4 4 5 1 5 6 5 8 9 10 15 8 11 16 16 15 14 12 14 11 14 12 14 14 14 13 13 14 17 19 22 23 25 28 30
6 5 4 5 1 1 2 6 6 5 4 2 3 5 4 9 13 17 11 14 12 6 9 15 11 11 13 13 12 12 13 16 16 16 16 17 17 18 21 25 26 29 33 33
8 3 3 3 3 2 4 4 4 5 3 7 5 5 2 6 7 7 9 8 8 5 8 4 7 12 15 16 17 18 18 18 16 15 16 16 17 19 21 24 28 31 35 35
8 4 7 11 4 6 6 6 6 6 3 5 8 5 5 9 5 5 10 12 8 4 5 6 10 14 15 14 14 13 12 13 14 15 18 19 20 21 24 27 30 33 34 36
3 4 3 3 5 4 3 5 8 10 13 8 8 10 7 8 5 7 11 9 5 5 8 11 11 11 12 14 16 17 18 18 21 22 24 26 28 29 29 29 29 31 32 32
1 3 3 1 2 2 2 7 7 3 1 5 3 8 8 19 12 12 11 6 6 4 5 8 10 13 15 18 20 22 24 25 27 28 29 30 31 32 33 34 34 34 33 33
4 5 3 3 5 5 5 12 9 5 6 6 8 5 5 3 1 1 3 2 5 6 8 10 12 14 16 18 21 23 26 27 28 29 29 30 32 33 34 36 36 36 36 37
8 7 3 3 5 5 3 1 8 16 10 10 9 2 7 6 6 7 9 6 4 6 8 10 13 15 16 18 21 23 25 27 30 31 34 36 37 39 39 40 40 38 37 37
3 6 3 5 5 6 4 5 7 8 7 12 12 6 6 4 6 11 6 6 7 8 10 13 16 19 22 24 27 30 31 32 33 35 35 36 39 41 42 43 45 46 43 38
3 3 2 3 4 8 4 1 10 6 4 5 9 10 9 11 3 3 3 7 11 13 15 17 20 23 25 27 29 30 31 32 34 36 38 38 39 41 42 42 42 43 43 41
4 3 7 3 3 7 6 8 6 6 7 12 13 11 8 4 4 5 6 11 13 16 18 20 22 24 24 26 28 29 30 31 32 35 37 39 39 40 41 42 41 39 38 36
9 7 5 3 3 9 10 3 8 4 16 14 9 6 2 1 3 9 11 13 15 18 20 20 23 25 25 26 30 31 31 32 34 35 36 38 40 40 39 39 38 37 35 34
2 6 5 8 6 1 16 2 7 15 17 9 8 5 3 8 13 17 20 20 21 23 23 23 27 30 29 27 29 32 31 32 34 35 36 37 38 38 36 34 33 34 33 31
3 4 3 4 4 5 9 10 15 9 11 9 1 6 11 14 18 23 25 25 27 27 25 28 29 30 32 29 30 32 34 33 34 36 36 36 37 35 33 31 30 29 29 29
5 10 6 4 1 6 7 10 12 4 3 8 11 14 15 18 25 26 30 31 28 27 29 32 33 34 36 34 34 33 33 34 36 37 36 35 33 31 30 30 30 28 25 21
10 6 5 5 11 6 11 20 7 7 8 11 14 18 19 21 26 28 31 30 31 34 34 34 35 38 41 40 41 38 35 36 37 36 36 34 31 28 27 25 21 15 10 8
Wind_Direction
97 108 186 196 172 135 136 144 157 195 350 196 250 263 278 282 285 278 273 269 267 262 261 251 248 248 244 242 240 240 241 243 241 241 242 244 242 240 241 245 245 247 248 254
52 215 200 125 151 116 126 122 196 16 83 168 343 283 262 272 263 269 274 276 275 281 272 256 247 244 242 242 241 241 241 243 244 243 246 246 247 247 248 251 248 251 248 250
150 224 143 134 140 148 177 163 179 171 46 45 344 297 321 297 277 272 264 278 284 290 286 276 254 245 242 242 243 245 245 243 244 246 244 247 247 250 251 252 254 252 251 249
183 138 145 139 156 135 175 193 134 139 95 235 16 283 308 309 303 291 293 300 300 311 318 311 279 251 243 246 248 247 248 247 247 246 248 251 254 255 262 263 265 263 257 252
225 165 141 132 183 164 182 104 118 90 97 63 321 60 273 330 290 302 337 48 68 65 60 57 62 134 270 244 245 248 250 248 247 247 250 255 259 266 271 271 270 271 266 256
116 80 143 169 91 115 150 82 54 55 82 330 234 162 285 224 212 354 11 31 36 44 57 59 58 65 40 302 280 261 254 252 251 251 253 257 262 268 270 272 273 274 273 268
95 89 353 143 84 41 84 83 11 348 7 221 47 111 251 275 273 237 308 338 17 18 8 351 331 335 336 344 346 328 305 271 259 258 260 263 267 269 272 271 272 271 269 267
150 219 169 195 169 168 183 155 158 198 199 255 92 233 245 204 317 239 33 45 49 47 40 40 43 52 46 44 46 50 45 27 323 275 268 268 271 272 272 272 273 273 273 271
141 234 74 93 133 135 185 178 156 104 24 58 225 289 306 86 56 84 75 65 57 64 69 70 68 73 78 67 62 60 56 50 35 12 346 314 296 293 295 292 284 284 285 283
195 123 31 123 113 41 150 160 81 10 143 255 284 270 226 111 98 90 51 64 85 87 77 69 61 56 59 56 54 49 46 33 22 15 346 324 322 315 309 305 305 306 301 296
142 109 188 123 206 163 136 169 68 123 146 172 203 256 225 140 146 100 52 46 63 77 57 39 36 42 40 34 27 21 17 7 359 345 333 320 305 297 294 300 302 308 304 300
189 126 157 196 308 259 153 175 150 149 211 238 152 265 21 135 116 95 73 58 36 66 27 6 26 14 2 2 359 354 343 336 332 325 316 315 307 297 291 297 295 298 298 295
179 193 84 21 13 358 197 194 141 110 85 202 143 255 336 120 124 80 76 36 27 357 324 6 347 350 345 339 334 334 333 333 329 321 321 318 309 299 292 288 287 287 290 292
137 121 181 206 179 143 184 185 174 156 167 195 218 149 208 233 271 338 24 14 16 61 12 351 337 337 338 338 338 337 338 328 324 326 328 323 317 308 303 300 296 291 289 289
105 131 117 78 113 111 149 167 175 196 218 187 232 197 219 224 275 321 356 19 78 20 346 342 337 332 330 329 330 330 332 333 331 330 330 326 323 320 318 312 307 304 300 294
21 110 96 89 96 63 193 202 194 207 190 281 180 261 217 264 290 330 354 75 73 48 3 346 338 334 332 331 327 326 324 323 323 323 323 321 319 319 322 321 318 314 310 307
104 123 117 185 137 83 285 225 204 179 186 155 226 217 164 167 227 164 169 88 47 24 10 359 355 349 342 334 326 320 321 322 322 324 324 324 321 320 319 318 318 316 310 306
148 135 138 137 129 208 232 350 220 218 226 212 262 183 148 161 156 138 121 99 44 11 0 356 346 339 335 330 323 320 321 320 320 321 320 320 319 319 320 319 318 316 313 308
149 136 135 160 197 318 290 190 155 167 249 217 236 131 150 170 165 167 101 40 14 352 339 330 330 327 323 321 317 315 315 313 313 312 311 310 310 310 311 312 312 314 313 311
71 87 126 146 179 198 237 347 146 99 276 175 161 148 145 148 156 243 187 336 330 326 323 317 314 314 314 314 311 312 314 314 313 308 305 304 302 299 299 299 300 304 307 307
143 142 203 182 192 278 216 198 147 103 240 152 149 148 148 157 168 149 300 307 312 319 318 313 312 313 314 312 308 310 312 315 314 315 314 311 306 303 301 298 298 297 299 299
177 165 190 133 118 258 168 134 174 183 138 134 139 138 147 213 268 304 315 314 317 317 315 315 315 318 320 318 314 313 313 311 309 309 311 311 308 304 301 300 300 300 300 298
208 180 179 179 204 159 185 201 156 155 145 146 148 121 353 313 309 313 315 313 310 312 311 306 307 309 311 312 312 312 313 309 307 307 307 305 303 302 300 298 298 298 298 296
267 170 162 86 266 176 161 154 137 121 118 124 329 319 314 308 305 303 303 302 305 306 302 305 309 311 311 311 308 311 313 312 308 306 304 304 303 302 300 297 298 295 292 288
188 146 164 260 319 132 172 155 144 138 273 299 296 307 304 301 297 299 299 299 300 297 301 304 307 309 308 308 307 311 311 310 310 305 303 303 303 300 298 298 298 294 288 280
181 170 172 216 168 144 174 165 230 266 262 283 286 291 291 290 291 293 292 295 298 298 297 297 300 303 303 302 302 305 307 306 307 306 302 301 301 297 295 293 289 279 272 261
Height
1513 1521 1525 1524 1525 1526 1531 1535 1535 1533 1532 1534 1536 1536 1527 1520 1520 1519 1518 1517 1516 1516 1515 1519 1521 1523 1525 1528 1530 1532 1536 1539 1543 1546 1548 1550 1550 1553 1555 1557 1560 1562 1564 1565
1519 1523 1517 1520 1524 1526 1528 1533 1535 1533 1533 1536 1536 1534 1524 1518 1512 1513 1511 1511 1510 1509 1509 1512 1514 1516 1518 1521 1525 1528 1530 1533 1536 1539 1541 1544 1546 1548 1551 1553 1555 1557 1560 1561
1516 1514 1514 1518 1526 1529 1530 1536 1534 1535 1536 1538 1539 1535 1526 1513 1509 1509 1507 1508 1507 1506 1505 1507 1508 1510 1512 1515 1518 1521 1525 1528 1530 1533 1536 1539 1542 1543 1545 1546 1549 1550 1553 1555
1512 1513 1515 1518 1522 1526 1534 1528 1530 1534 1542 1553 1544 1556 1532 1520 1515 1507 1505 1505 1504 1504 1503 1505 1506 1507 1508 1510 1512 1515 1518 1522 1526 1529 1532 1534 1536 1536 1538 1540 1543 1545 1547 1549
1515 1514 1516 1519 1518 1521 1526 1527 1532 1537 1547 1547 1550 1556 1533 1525 1516 1510 1506 1503 1504 1504 1504 1504 1504 1505 1506 1507 1509 1510 1513 1516 1519 1524 1527 1529 1531 1533 1534 1535 1536 1537 1539 1541
1512 1512 1513 1515 1519 1519 1524 1531 1540 1550 1554 1562 1551 1551 1540 1526 1515 1510 1508 1507 1506 1505 1504 1505 1506 1506 1506 1506 1506 1507 1508 1511 1515 1519 1523 1525 1526 1527 1528 1530 1531 1532 1533 1535
1514 1515 1513 1515 1521 1521 1524 1535 1557 1562 1571 1562 1553 1555 1537 1516 1514 1512 1510 1509 1508 1507 1505 1506 1505 1506 1506 1506 1506 1506 1507 1510 1513 1516 1519 1521 1522 1522 1523 1524 1524 1525 1525 1525
1517 1524 1514 1512 1513 1521 1527 1528 1551 1562 1570 1556 1552 1549 1525 1510 1511 1510 1510 1509 1510 1508 1507 1506 1506 1506 1506 1508 1508 1509 1510 1511 1513 1515 1516 1518 1519 1519 1517 1517 1517 1517 1518 1519
1513 1512 1509 1511 1510 1512 1526 1534 1533 1556 1599 1573 1546 1535 1514 1510 1513 1511 1510 1510 1510 1510 1510 1509 1509 1509 1510 1512 1512 1513 1513 1514 1515 1516 1516 1516 1515 1516 1515 1515 1514 1512 1513 1513
1496 1510 1513 1511 1512 1515 1516 1521 1540 1554 1566 1571 1548 1539 1529 1512 1518 1515 1514 1512 1513 1513 1513 1512 1514 1514 1514 1514 1514 1514 1514 1515 1516 1516 1516 1516 1514 1514 1513 1512 1511 1510 1508 1507
1490 1498 1516 1513 1513 1515 1520 1522 1528 1531 1544 1555 1566 1538 1516 1515 1516 1516 1516 1513 1513 1514 1514 1515 1516 1517 1516 1515 1515 1515 1514 1514 1514 1514 1514 1513 1512 1511 1510 1509 1508 1506 1504 1501
1485 1497 1520 1511 1508 1509 1508 1513 1517 1533 1541 1550 1546 1534 1512 1513 1512 1514 1517 1517 1515 1515 1514 1514 1514 1515 1515 1514 1513 1512 1511 1511 1510 1510 1509 1508 1507 1506 1505 1505 1504 1501 1497 1494
1481 1499 1524 1514 1513 1511 1510 1511 1512 1519 1529 1534 1543 1532 1514 1514 1514 1516 1517 1517 1516 1515 1515 1515 1515 1513 1513 1512 1511 1509 1507 1507 1507 1507 1504 1503 1502 1501 1499 1497 1496 1494 1490 1486
1474 1490 1490 1492 1494 1501 1509 1509 1510 1512 1532 1516 1520 1518 1514 1514 1512 1513 1512 1513 1513 1513 1514 1515 1514 1512 1510 1509 1509 1508 1506 1504 1504 1502 1501 1498 1497 1496 1494 1491 1488 1485 1482 1478
1476 1492 1489 1494 1494 1497 1501 1506 1510 1510 1503 1514 1503 1513 1508 1507 1509 1507 1509 1509 1510 1511 1511 1511 1510 1509 1508 1506 1504 1503 1502 1500 1498 1496 1494 1492 1489 1488 1485 1482 1479 1476 1472 1469
1477 1494 1492 1499 1496 1499 1500 1503 1506 1510 1511 1513 1514 1512 1505 1504 1506 1505 1507 1508 1509 1509 1509 1508 1506 1505 1504 1502 1500 1498 1496 1495 1492 1490 1488 1485 1482 1479 1476 1472 1470 1467 1464 1460
1479 1490 1498 1499 1502 1506 1506 1495 1500 1503 1504 1504 1506 1499 1500 1503 1506 1507 1507 1507 1507 1508 1507 1507 1505 1504 1503 1501 1497 1496 1493 1491 1488 1486 1483 1480 1476 1473 1470 1466 1463 1459 1455 1452
1481 1489 1495 1504 1504 1501 1485 1485 1484 1488 1491 1494 1493 1496 1499 1502 1505 1506 1508 1507 1506 1506 1505 1504 1504 1502 1501 1500 1498 1495 1493 1490 1487 1483 1478 1475 1470 1466 1462 1459 1456 1451 1448 1445
1475 1482 1493 1496 1496 1495 1479 1484 1486 1488 1488 1485 1487 1495 1497 1499 1503 1505 1505 1506 1505 1504 1503 1502 1501 1500 1499 1497 1495 1492 1490 1487 1484 1479 1475 1472 1467 1461 1456 1452 1447 1443 1438 1434
1475 1476 1481 1504 1496 1509 1484 1477 1477 1480 1495 1480 1484 1491 1495 1497 1504 1503 1503 1504 1503 1503 1501 1499 1497 1497 1496 1494 1490 1487 1485 1482 1478 1474 1469 1465 1461 1457 1452 1447 1443 1438 1432 1427
1476 1480 1479 1502 1499 1494 1478 1477 1477 1502 1489 1478 1484 1489 1492 1495 1497 1499 1500 1501 1500 1499 1497 1495 1493 1492 1491 1488 1483 1481 1478 1476 1471 1467 1462 1457 1453 1448 1444 1439 1434 1430 1425 1421
1466 1476 1482 1488 1494 1491 1471 1477 1482 1478 1477 1481 1485 1488 1490 1491 1493 1495 1495 1495 1495 1495 1493 1490 1488 1487 1485 1482 1477 1473 1471 1468 1464 1459 1455 1451 1446 1440 1435 1430 1426 1422 1418 1415
1475 1468 1479 1476 1473 1468 1469 1471 1473 1475 1478 1481 1484 1486 1487 1487 1488 1489 1489 1489 1489 1488 1486 1485 1483 1480 1479 1477 1471 1466 1464 1460 1456 1452 1447 1443 1438 1433 1428 1423 1419 1415 1412 1410
1467 1464 1473 1473 1467 1466 1468 1471 1474 1476 1478 1481 1482 1483 1484 1485 1484 1483 1483 1484 1483 1481 1479 1477 1474 1472 1469 1469 1465 1461 1456 1452 1447 1443 1439 1434 1429 1424 1420 1416 1413 1410 1407 1404
1457 1460 1467 1470 1466 1467 1467 1470 1472 1474 1476 1478 1479 1479 1480 1480 1478 1477 1475 1474 1473 1472 1470 1468 1465 1462 1460 1459 1456 1454 1448 1444 1439 1435 1430 1426 1421 1417 1414 1411 1408 1405 1403 1401
1446 1449 1457 1462 1457 1460 1462 1467 1469 1472 1474 1475 1475 1475 1475 1475 1473 1471 1468 1467 1465 1463 1462 1460 1458 1454 1451 1449 1446 1444 1440 1435 1431 1426 1422 1418 1414 1411 1408 1405 1403 1401 1400 1399